Wind_Speed
6 7 7 7 7 7 7 7 7 7 7 7 7 7 7 7 7 7 7 8 8 9 9 9 10 10 10 11 11 12 13 13 14 15 16 14 11 11 11 10 8 6 5 4 1 1 1 3 3 4 4 4 3 4 4 6 6 3 2 2 3 3 4 5 6 4 3 3 4 6 10 8 5 7 8 7 9 12 11 16 17 18 22 23 20 17 14 12
7 6 7 7 7 7 6 6 6 6 6 6 7 7 7 7 7 7 7 7 7 8 8 9 10 10 10 11 11 13 14 14 16 16 16 13 12 13 13 12 10 8 7 5 4 3 2 2 3 4 5 5 4 4 3 5 7 5 3 2 5 5 5 5 6 5 2 5 6 7 10 10 8 7 6 5 8 10 9 13 17 19 22 24 24 22 20 18
8 7 7 7 7 7 6 6 6 6 6 6 6 6 6 6 7 7 7 7 7 8 8 9 9 10 10 11 12 13 14 16 17 13 6 4 7 8 11 13 12 10 8 7 6 5 4 4 3 3 6 6 5 5 4 5 7 7 4 2 7 7 6 10 12 12 10 8 6 6 8 10 12 10 5 6 8 8 10 14 15 20 27 26 26 25 23 22
9 8 8 8 8 8 7 7 6 6 6 6 6 6 6 6 6 7 7 7 8 8 9 9 10 11 11 12 13 13 15 16 11 2 2 5 12 11 6 9 12 11 10 10 9 7 6 5 4 3 6 6 6 6 6 8 7 5 6 5 7 4 4 13 16 14 12 8 8 8 5 7 12 11 10 8 6 6 14 23 22 23 28 28 28 28 26 25
10 10 10 9 9 9 9 9 8 8 7 7 7 7 7 7 7 7 8 8 9 9 9 10 11 12 12 13 13 13 13 9 3 2 6 13 16 12 7 5 10 12 12 12 11 9 8 6 6 5 6 6 5 4 5 12 10 4 8 13 13 6 4 15 17 13 11 10 11 9 6 8 9 10 15 13 8 13 19 25 25 23 24 23 26 27 28 28
12 12 11 11 11 11 11 11 11 10 10 10 9 10 10 10 10 9 10 10 10 10 11 11 12 12 13 14 14 14 9 3 7 12 14 14 13 10 7 6 7 11 13 13 13 11 10 9 8 7 6 5 5 6 7 13 13 6 8 13 18 15 11 20 22 18 16 13 13 12 11 12 8 10 17 19 23 29 30 27 25 23 20 18 21 25 28 29
13 13 13 13 13 13 13 13 13 13 13 13 12 12 12 13 12 12 13 13 13 13 13 13 13 13 14 14 15 14 9 9 14 14 11 10 9 9 9 8 6 10 13 14 15 13 12 11 11 9 5 3 5 8 9 10 12 9 7 8 16 19 18 25 25 22 21 17 18 16 14 13 11 11 14 22 36 38 34 30 28 26 22 19 20 24 27 29
14 14 14 14 14 14 15 15 15 15 15 15 15 15 15 15 15 15 15 15 16 15 15 15 14 15 15 15 16 13 12 14 14 10 9 10 10 11 10 10 8 10 13 15 17 15 14 13 14 10 4 5 6 7 7 6 6 9 8 9 12 15 19 23 21 21 21 19 20 15 15 19 18 14 15 32 46 41 34 31 30 28 25 24 25 26 26 28
15 16 16 16 16 16 17 17 17 17 17 17 17 17 17 17 17 17 17 17 17 17 17 17 16 16 15 16 15 12 14 15 11 10 12 14 15 14 12 12 10 11 12 15 17 16 16 15 16 13 8 8 7 7 6 4 4 8 12 11 10 14 19 21 20 22 21 20 17 10 16 22 20 13 18 41 47 37 32 28 29 29 29 30 31 31 31 32
16 16 16 17 17 17 18 18 19 19 19 19 19 19 19 19 19 19 19 18 18 18 18 17 17 17 15 17 12 8 15 16 13 15 17 18 18 16 15 14 12 12 12 16 18 19 19 17 14 12 11 9 6 7 5 5 5 6 9 11 13 17 21 22 21 24 21 18 17 10 15 23 15 3 14 40 38 24 21 19 22 25 30 34 35 36 35 36
15 15 16 16 16 17 18 18 20 20 20 21 21 21 21 21 21 21 21 20 20 20 19 18 18 16 16 18 13 12 19 20 18 20 20 20 19 18 18 15 15 14 13 16 18 20 20 17 14 9 7 6 5 6 6 8 8 8 7 9 15 14 19 23 18 22 17 12 18 14 12 19 9 4 19 43 37 22 20 20 20 22 27 31 33 37 38 39
16 16 16 17 17 17 18 18 19 20 21 21 21 21 21 22 22 22 23 22 21 21 21 19 18 18 16 19 22 22 23 23 21 22 21 21 21 21 20 18 17 15 15 17 18 19 18 17 16 12 8 5 3 3 5 6 6 9 6 6 13 8 14 24 17 18 12 7 13 7 4 13 5 12 33 44 38 28 25 27 28 28 30 30 31 34 36 39
18 18 18 19 19 19 19 20 20 21 21 21 21 21 21 22 22 22 23 22 22 21 21 20 19 18 15 19 28 26 23 23 23 23 23 23 23 22 22 21 18 16 16 17 18 19 18 17 16 15 13 9 4 4 6 6 7 9 4 1 8 7 9 16 7 9 9 6 9 9 1 11 8 21 37 39 35 29 26 31 34 33 34 33 33 34 35 37
18 19 19 20 20 21 21 21 22 22 22 22 21 21 20 21 21 22 22 21 21 20 21 19 18 17 14 21 29 27 24 25 25 25 23 22 22 23 23 22 19 17 17 17 17 18 17 15 14 13 13 13 11 10 8 7 5 5 2 1 3 3 8 9 1 4 4 5 12 12 3 10 11 23 34 33 29 23 23 31 34 33 35 35 35 35 37 38
16 17 18 19 19 20 21 21 22 23 24 24 23 22 21 21 22 22 20 20 20 20 20 18 17 14 12 21 28 24 23 25 24 23 20 20 21 22 22 20 18 18 17 17 17 17 15 13 12 10 10 12 12 7 4 4 4 1 2 4 2 3 7 12 7 7 8 6 12 12 3 9 13 23 35 32 24 20 22 30 34 33 34 34 36 36 37 39
14 15 15 16 17 18 19 20 21 22 23 24 24 23 23 22 22 22 21 20 19 19 18 15 16 12 8 16 21 20 23 25 23 22 21 21 21 21 20 17 16 16 16 16 16 15 13 11 9 9 7 8 6 2 4 4 5 2 3 6 5 5 4 8 10 8 13 6 7 9 5 6 10 20 31 26 20 21 22 29 33 33 33 34 36 37 37 38
12 13 13 14 15 16 17 18 19 21 22 22 23 23 22 22 22 22 21 20 18 17 15 11 11 10 9 14 19 23 25 23 20 18 18 19 20 21 20 18 15 15 13 13 12 10 10 9 7 5 5 5 2 5 3 3 6 4 3 5 6 7 4 4 9 6 8 7 6 10 9 11 13 17 23 18 13 14 17 26 30 30 32 33 35 37 38 40
10 11 12 13 14 16 17 18 19 20 21 22 23 23 22 21 20 20 19 19 16 10 9 9 8 3 10 15 16 20 19 15 13 13 14 16 18 19 18 16 14 12 10 8 8 9 9 7 5 1 3 4 2 5 4 7 9 7 5 5 4 6 6 7 9 4 3 5 8 8 9 15 17 17 24 26 23 18 20 26 28 30 33 34 35 36 39 41
10 10 11 12 13 14 15 17 18 19 21 21 21 21 21 19 16 15 14 13 11 6 5 11 13 5 7 11 11 13 14 16 17 17 18 18 17 17 16 14 11 12 9 5 5 10 11 4 4 2 4 8 7 8 11 14 12 10 7 5 5 7 7 8 12 7 3 6 8 9 13 15 17 18 22 31 32 28 30 29 27 31 36 38 39 40 41 42
9 10 10 11 11 13 14 15 16 18 20 20 20 19 15 10 7 6 8 11 15 14 12 13 17 16 14 14 16 17 20 22 21 21 20 18 16 15 16 13 10 10 7 5 5 9 11 5 3 7 11 13 11 12 16 15 10 7 5 6 8 9 10 10 14 11 5 6 8 12 17 17 17 18 19 27 28 23 26 26 27 33 36 38 40 42 44 45
9 9 10 10 10 12 13 14 16 16 17 18 20 16 9 5 4 6 8 12 19 22 23 21 20 24 24 22 23 23 22 20 21 22 18 16 16 13 15 13 8 5 6 7 5 3 8 6 8 15 17 13 9 11 13 10 8 8 7 8 9 8 13 13 13 13 6 5 8 11 16 18 17 16 17 21 18 17 23 23 27 34 34 37 39 43 47 48
10 10 10 11 10 12 12 14 15 15 15 17 17 14 9 8 7 9 10 12 20 23 24 26 26 29 31 30 30 29 23 17 19 22 19 18 20 15 12 12 7 4 5 6 2 1 4 6 14 20 13 7 6 6 7 9 9 8 6 7 8 7 12 12 10 14 5 4 8 9 13 16 14 15 15 16 16 21 31 30 33 37 32 33 39 42 46 48
12 11 12 11 11 12 12 14 14 13 16 16 15 12 11 12 10 10 9 7 16 22 23 27 29 31 32 32 33 32 28 21 19 23 23 23 22 18 14 12 6 3 6 7 8 6 5 7 17 19 8 5 8 6 5 6 6 7 7 6 8 7 9 9 6 9 4 3 7 8 12 12 9 11 11 18 27 28 33 35 38 42 35 36 43 43 43 45
14 13 13 13 12 12 13 13 12 13 17 16 13 13 13 13 10 9 8 5 8 15 20 25 25 28 32 30 28 30 31 26 19 19 26 28 23 15 12 10 6 4 7 13 14 12 9 8 13 12 8 9 11 9 6 6 7 9 9 8 11 12 12 11 6 6 5 4 5 6 12 11 8 13 11 16 25 24 28 31 33 42 42 41 46 46 45 47
15 16 15 15 14 13 14 13 10 12 16 15 13 14 14 12 9 9 7 4 4 8 13 14 16 21 25 23 20 21 20 21 21 19 22 29 26 13 6 10 8 6 12 13 11 10 11 10 9 8 8 11 10 9 8 8 10 8 8 13 18 16 13 13 10 8 6 5 4 1 8 9 7 13 13 11 12 13 18 20 24 37 42 38 42 49 50 49
15 16 17 17 17 15 15 13 11 13 14 12 13 15 14 10 8 8 5 2 3 5 4 5 8 8 10 13 16 13 5 10 20 22 20 24 29 19 5 7 7 7 9 8 4 4 7 11 10 9 9 10 8 8 9 11 9 8 7 13 17 13 10 12 9 5 3 5 4 2 2 10 5 7 10 10 9 11 12 12 18 31 36 33 38 47 49 48
15 15 16 18 18 18 16 14 13 14 12 11 14 15 13 7 4 6 4 3 4 4 4 5 6 4 4 7 14 13 2 5 9 17 23 22 26 23 10 5 5 5 5 4 3 4 5 8 9 10 9 7 7 9 10 12 8 8 4 9 11 9 9 8 6 5 4 3 4 1 4 8 13 6 10 12 10 10 11 13 17 23 28 31 36 42 45 45
18 16 16 17 18 18 17 16 16 13 10 10 13 13 10 4 2 3 2 4 4 4 4 4 6 5 4 8 18 14 1 1 3 8 19 20 21 17 10 9 6 4 5 5 5 5 5 7 10 11 8 6 9 11 9 13 8 6 3 7 7 6 5 5 4 5 2 4 4 3 5 4 14 7 7 9 9 9 13 17 18 18 22 29 35 41 43 44
22 21 19 16 18 19 18 17 14 12 10 9 11 12 7 2 2 3 2 4 3 3 3 4 5 4 2 8 16 12 2 2 1 5 11 13 16 11 4 7 6 3 4 6 8 6 2 4 8 10 7 8 11 7 8 14 9 4 6 5 5 3 3 5 3 1 2 5 5 6 6 3 13 7 4 3 5 9 13 14 14 14 20 28 34 38 39 39
24 23 21 18 18 19 19 18 13 11 10 8 10 10 4 2 1 2 3 5 2 0 2 4 4 2 4 6 5 7 3 2 2 5 6 5 11 8 0 1 3 3 4 4 7 8 2 2 2 6 7 7 5 2 3 8 6 4 7 5 6 5 5 4 1 4 2 8 6 10 11 7 8 6 5 4 5 8 9 8 9 11 20 28 31 33 33 31
24 23 22 21 20 19 19 19 15 12 10 9 9 6 4 2 3 2 7 2 1 1 1 1 1 2 4 4 2 3 2 2 1 6 3 2 4 4 1 1 1 1 3 5 7 7 4 2 1 4 7 5 6 4 2 2 4 5 4 4 3 4 4 4 4 4 1 9 5 12 13 10 10 6 3 5 6 5 7 8 9 10 16 24 26 28 29 29
24 23 22 23 24 22 21 21 17 14 13 12 9 5 3 1 1 7 6 4 2 3 1 1 1 2 2 2 1 3 2 2 2 5 4 3 3 3 3 4 4 1 4 5 5 5 4 7 5 2 4 7 6 3 3 5 3 5 4 5 1 4 3 3 3 1 4 9 5 8 8 7 12 8 4 8 10 8 9 9 12 11 14 23 24 25 29 32
23 23 23 23 23 23 23 21 18 15 14 12 6 3 3 1 5 6 3 1 2 2 2 1 1 3 4 2 3 4 2 2 4 4 2 3 2 4 5 5 5 2 4 4 2 4 4 6 4 3 3 8 10 5 3 2 4 7 5 6 5 3 2 3 4 2 5 8 4 5 6 5 8 4 9 15 15 13 11 13 21 21 22 27 28 27 31 35
22 22 23 22 22 22 21 20 17 14 13 10 4 5 3 5 5 1 1 4 4 2 2 2 2 2 3 2 4 3 2 4 4 4 2 3 2 3 5 6 6 3 1 2 2 2 4 8 5 7 4 10 13 12 9 4 5 7 5 6 6 5 5 4 5 6 7 6 4 2 5 5 3 2 8 12 10 10 11 15 20 21 25 30 32 33 34 37
22 22 23 23 23 22 20 19 17 15 14 9 6 4 4 7 4 0 2 4 3 3 3 1 3 1 2 3 4 4 6 5 2 5 3 3 3 4 4 5 8 5 3 3 3 3 5 10 7 5 3 11 14 12 9 7 2 4 4 4 4 6 6 4 6 6 3 2 4 3 5 5 4 5 8 7 8 9 10 13 13 17 25 30 34 37 39 40
22 22 22 23 24 22 20 19 16 16 16 11 6 3 8 6 3 3 3 2 1 1 3 5 1 2 4 3 3 4 5 4 0 2 3 3 3 5 5 4 8 11 8 6 3 3 5 7 3 1 1 5 5 4 6 5 3 2 4 4 4 4 6 5 6 2 2 4 6 4 6 6 5 8 6 3 6 7 8 11 11 17 24 25 28 35 39 41
23 23 23 25 25 20 19 18 15 19 19 13 5 7 6 4 4 5 1 1 1 1 2 3 2 2 3 2 2 3 1 2 1 2 2 2 2 5 5 5 7 13 15 12 4 4 6 6 3 4 3 3 3 4 2 2 2 5 4 6 2 3 2 3 2 2 2 8 7 6 11 9 5 8 4 5 5 7 8 7 7 12 16 17 24 32 37 38
23 23 26 28 26 21 20 17 16 22 19 10 8 11 5 3 5 6 4 2 1 2 2 3 3 1 2 3 2 2 2 2 1 1 2 2 3 4 5 3 5 11 17 14 5 3 4 6 5 2 2 2 3 2 2 5 3 5 4 2 4 2 2 2 3 3 6 9 7 10 16 10 7 9 5 4 8 10 8 6 6 9 10 13 21 29 35 37
19 18 21 21 18 19 21 19 21 25 15 5 8 9 4 4 5 6 7 5 2 1 2 5 4 2 3 5 4 2 3 4 1 1 2 2 3 2 3 1 2 4 9 8 4 4 1 3 5 1 1 1 3 1 3 2 2 1 1 2 1 3 4 3 3 3 6 10 8 10 12 10 8 6 5 7 8 7 6 6 7 8 10 15 21 27 32 34
13 9 11 10 6 11 17 21 25 21 9 4 9 8 3 3 5 10 13 9 5 4 4 4 5 5 5 6 7 5 4 6 5 3 3 4 5 5 2 1 2 3 4 5 4 3 2 2 6 3 3 2 1 3 6 6 4 2 2 3 2 2 1 1 2 2 3 8 8 8 10 10 7 4 7 7 7 5 2 8 8 9 14 21 23 25 29 31
9 6 9 9 8 11 19 22 18 11 4 5 8 7 6 5 6 9 14 14 10 8 7 4 5 6 6 7 7 5 4 5 7 6 5 5 7 6 4 4 5 1 2 3 1 1 0 3 5 4 4 5 5 4 6 8 8 6 6 7 7 7 4 5 7 5 3 6 8 8 10 9 7 4 5 4 6 5 8 9 7 9 15 20 22 24 26 29
11 7 7 8 11 18 23 16 8 6 5 6 8 8 8 7 7 7 10 13 11 8 7 5 6 7 7 8 7 6 5 4 7 7 6 9 11 9 7 9 10 5 3 1 2 3 3 1 2 5 7 8 11 7 4 7 7 4 4 6 7 7 7 8 10 8 5 5 6 8 10 6 6 11 9 8 11 12 12 11 8 11 20 22 24 27 27 30
13 12 8 5 11 23 22 8 6 7 3 5 8 9 9 7 5 6 7 9 8 6 5 5 7 9 8 8 9 8 6 6 8 9 8 8 11 15 18 17 12 5 3 2 3 4 5 2 2 6 5 6 12 12 6 3 2 4 5 6 8 8 9 11 9 5 6 7 6 8 10 6 4 12 16 15 14 11 13 16 14 15 24 27 27 30 33 38
10 14 14 11 12 21 17 4 6 8 6 8 7 8 10 8 6 9 7 6 7 5 5 6 7 9 9 7 8 8 7 7 9 11 11 7 7 18 27 27 19 8 4 6 5 6 6 3 4 5 5 5 6 7 8 4 3 4 5 6 10 11 10 8 4 2 7 10 11 11 11 7 6 10 14 18 19 17 17 23 23 21 24 28 29 33 39 41
6 9 14 15 17 22 19 11 9 6 5 9 9 9 10 8 10 17 14 8 9 7 5 5 5 6 8 7 8 9 9 9 8 7 8 5 4 10 20 28 24 13 12 15 11 8 6 5 5 6 7 9 8 8 6 4 4 4 4 7 12 13 12 9 5 5 9 10 12 12 10 9 10 11 14 20 24 22 22 26 26 21 23 29 32 35 39 38
3 4 6 10 17 23 24 22 17 8 4 7 7 7 11 10 10 16 14 10 14 14 9 7 6 4 4 7 9 11 10 11 10 6 4 5 4 3 10 22 24 21 24 26 18 9 1 5 10 12 13 12 14 14 7 4 5 6 7 10 11 10 11 10 8 9 10 10 12 12 12 14 14 12 17 22 22 23 24 24 22 21 26 32 34 34 35 36
3 3 2 3 9 14 17 18 15 8 3 4 3 4 11 13 8 9 10 8 11 14 9 7 9 9 8 9 11 11 12 12 12 11 9 8 6 6 8 13 16 21 24 20 16 10 1 4 12 16 19 18 18 20 16 10 10 9 9 11 10 8 9 10 11 12 11 10 12 11 13 17 16 15 19 22 22 23 23 21 23 28 34 36 35 34 34 36
4 4 4 2 2 5 7 5 4 3 2 1 2 3 7 11 7 5 6 4 5 8 6 5 8 8 7 6 6 6 8 10 11 10 7 5 6 8 8 7 8 13 13 8 9 8 2 6 12 14 18 19 18 20 20 17 16 14 13 14 14 14 14 15 17 17 14 14 16 15 18 21 18 17 20 23 23 22 22 25 32 38 42 42 40 37 36 35
6 5 7 5 3 4 5 5 6 5 4 3 3 3 4 7 6 3 1 3 4 3 5 3 1 3 6 6 4 4 5 4 5 3 4 6 7 5 5 6 5 5 5 3 4 4 3 6 11 14 18 18 19 20 20 20 19 18 19 20 20 20 22 23 23 22 22 23 23 23 25 25 20 17 20 25 26 24 25 31 37 38 41 43 43 40 38 35
6 5 5 6 6 7 7 6 5 4 4 4 4 4 3 4 4 2 1 1 3 3 1 2 6 6 5 5 3 4 3 2 1 3 5 7 8 4 3 4 5 9 8 4 3 3 5 7 10 13 13 14 17 19 19 20 21 22 23 22 21 23 24 24 23 21 20 24 26 27 28 23 18 19 22 25 28 28 26 27 31 37 43 44 42 38 33 29
9 8 6 6 6 5 4 4 3 2 4 4 3 2 3 3 2 3 3 5 5 2 3 4 6 6 4 6 6 3 1 1 3 7 7 7 9 9 7 6 8 10 9 6 3 3 4 4 6 9 9 9 13 18 21 22 22 23 22 22 23 23 22 21 21 20 21 24 25 25 22 17 16 20 21 21 24 24 21 23 30 39 40 33 26 23 25 28
10 9 8 5 5 5 4 2 2 3 4 2 1 2 4 4 4 5 4 4 5 6 5 6 6 6 5 8 8 4 6 9 12 15 16 16 18 19 19 18 17 11 7 6 5 3 4 4 4 6 7 7 11 16 19 17 14 14 16 22 26 25 23 22 22 22 23 22 20 19 18 16 16 16 16 17 18 17 18 20 21 21 21 22 23 24 28 31
Wind_Direction
331 336 336 339 344 348 353 359 2 6 10 12 12 14 12 13 13 12 10 7 2 357 355 354 350 344 339 331 327 320 314 310 306 298 293 297 288 271 266 267 269 268 268 261 251 247 186 147 183 209 222 236 248 255 233 224 212 199 114 152 245 206 207 202 192 211 176 261 275 225 222 206 240 249 233 253 242 237 237 228 225 225 228 234 240 242 244 235
323 327 328 332 333 337 344 346 351 356 1 4 9 8 8 11 10 11 9 6 4 360 359 356 353 350 345 340 335 328 321 315 307 300 300 301 282 266 259 260 263 261 263 262 257 253 239 187 189 211 224 235 244 241 224 216 201 189 141 160 233 205 215 219 210 251 273 272 269 241 233 216 237 254 227 243 245 232 234 237 228 229 233 234 239 240 242 238
317 319 319 322 321 326 329 331 338 341 347 351 354 358 360 1 360 3 1 360 359 356 356 354 351 348 345 342 339 334 328 321 312 307 311 340 326 295 262 253 252 256 257 256 255 250 255 240 222 228 229 237 235 228 217 198 200 207 186 218 245 218 244 268 261 271 283 276 271 264 244 225 243 253 226 230 253 241 227 237 226 228 238 237 239 240 239 237
311 312 312 313 313 314 314 316 319 320 329 330 334 339 339 342 343 343 342 344 343 342 344 344 342 341 340 339 339 336 332 325 316 322 109 11 351 342 302 257 244 246 248 249 248 244 250 238 240 244 227 236 232 228 223 204 205 200 183 210 241 202 243 268 267 274 282 280 273 270 256 247 257 251 234 229 261 258 234 243 241 241 251 246 240 240 238 236
306 306 307 307 306 306 306 306 305 307 310 311 316 317 319 322 321 323 324 324 325 326 329 329 330 330 329 331 331 331 339 342 337 7 323 319 329 332 332 280 242 234 237 243 244 238 238 229 226 221 216 234 217 210 234 217 204 186 218 231 242 225 243 270 276 284 285 284 277 270 264 269 269 249 242 229 229 252 250 257 259 258 265 259 250 246 240 237
303 303 304 303 303 303 302 300 300 300 300 302 304 305 309 308 309 312 310 312 313 314 317 319 322 322 323 325 323 322 328 310 309 323 318 318 325 327 333 306 257 238 235 237 240 236 234 227 218 210 205 228 206 199 237 227 208 221 248 240 248 245 246 268 272 276 282 281 271 267 271 272 269 266 259 238 239 259 265 267 268 269 270 264 256 248 242 240
301 302 302 302 302 301 300 298 297 296 297 298 299 300 303 302 304 305 305 308 306 308 312 313 316 317 320 319 316 313 292 281 306 317 316 325 329 329 332 317 288 254 243 237 237 234 232 226 219 219 205 239 227 213 244 242 210 222 258 248 255 253 250 264 269 272 277 275 269 271 275 268 255 271 279 260 259 267 269 267 266 266 264 255 250 246 245 246
299 300 300 301 301 301 299 297 295 295 294 294 295 296 297 298 298 298 301 302 302 305 306 310 313 315 318 316 314 306 284 291 309 310 311 320 319 320 318 309 298 270 255 245 241 236 236 230 226 227 210 235 234 225 255 269 217 211 246 256 257 257 257 267 274 274 274 275 275 273 267 261 259 271 281 272 273 275 270 268 264 258 253 248 248 248 248 248
297 297 298 298 298 299 298 297 295 294 292 291 291 291 291 292 292 293 294 295 297 298 300 304 306 308 312 309 309 300 287 298 309 304 308 311 308 306 299 295 291 278 263 250 243 238 237 235 236 234 235 245 240 245 247 256 235 210 235 256 263 266 270 276 278 275 276 276 276 266 266 269 269 280 278 273 277 281 276 270 263 254 247 246 248 249 249 250
295 295 295 295 295 296 295 295 295 294 293 292 291 290 289 288 288 289 288 290 291 292 295 296 298 302 303 300 296 277 285 295 301 301 303 303 300 296 290 286 281 275 264 252 243 238 239 240 243 238 246 257 241 243 223 212 249 246 255 269 272 275 281 281 276 277 278 278 268 240 262 274 271 265 271 275 279 284 282 275 266 255 249 249 248 249 250 251
295 295 295 294 294 294 293 292 292 291 292 291 292 292 291 290 289 288 286 287 287 288 289 289 293 293 294 293 269 254 284 292 294 296 296 296 293 288 284 277 273 271 261 255 246 243 245 242 242 231 238 256 246 252 241 239 261 282 297 297 283 288 291 280 270 275 275 278 266 231 253 277 269 169 249 270 276 275 279 279 272 262 257 255 250 250 249 250
296 296 296 296 296 296 294 293 291 291 290 289 290 290 291 291 290 289 288 287 286 285 285 285 286 286 290 283 266 268 287 290 289 290 289 290 287 283 279 270 267 265 258 256 251 248 246 240 237 230 235 246 269 291 256 260 294 298 313 315 292 319 304 279 266 266 253 260 264 205 255 280 239 223 249 266 273 270 274 275 272 269 265 262 256 252 250 252
296 297 298 297 298 298 296 295 294 293 292 291 290 290 290 290 289 289 287 287 287 286 284 281 279 280 279 273 274 281 288 287 286 286 285 284 281 278 273 268 265 259 255 253 250 248 243 239 235 232 243 248 259 274 272 298 321 302 312 326 294 335 302 276 264 251 233 235 232 157 211 272 245 246 255 269 272 267 270 273 274 272 269 266 261 256 253 254
297 297 298 299 299 299 298 297 296 295 294 294 293 292 291 290 289 287 287 288 287 285 285 280 274 271 262 267 279 284 284 284 283 282 283 280 276 272 268 266 263 260 256 252 248 245 238 236 233 234 244 247 256 272 292 321 321 295 300 257 287 299 273 279 29 162 220 235 191 163 218 257 261 263 264 271 270 264 265 269 274 273 270 268 264 260 258 257
300 301 301 302 303 302 301 299 298 297 296 295 294 294 293 292 290 288 289 287 284 283 282 276 267 259 253 268 277 281 280 278 280 284 282 273 269 267 265 263 260 257 254 249 245 241 235 230 225 229 242 251 259 273 318 340 336 350 254 274 273 212 263 295 299 192 216 239 174 167 232 252 259 266 267 271 268 261 257 263 269 268 268 268 267 264 262 261
307 308 308 309 309 307 306 304 302 299 298 297 296 295 294 292 289 289 289 286 284 281 275 268 260 247 242 272 275 273 274 275 280 283 274 268 265 262 261 259 254 250 246 243 241 236 232 224 221 226 237 251 241 154 41 351 317 328 208 246 256 232 261 304 299 226 207 208 175 199 227 250 259 262 266 269 264 255 246 255 262 263 266 266 266 267 264 264
316 316 316 318 317 314 313 310 308 304 301 300 298 295 294 292 289 287 286 283 280 272 263 254 246 236 238 264 270 270 274 277 281 279 270 268 262 258 257 250 245 240 234 231 232 224 214 205 199 221 241 248 167 108 60 291 266 282 215 233 248 243 242 269 297 279 196 181 207 228 227 240 252 259 264 258 251 252 240 251 259 262 266 264 264 266 265 264
325 326 327 328 326 323 320 317 314 309 306 305 303 300 298 297 292 287 282 276 270 259 246 216 188 210 249 249 259 270 276 276 273 271 269 262 251 250 247 242 237 222 210 210 209 188 186 188 165 168 284 246 176 131 181 229 231 237 222 231 254 246 240 244 269 281 166 208 223 229 237 244 253 263 265 258 256 263 256 256 261 265 267 267 266 265 265 265
331 334 336 337 337 332 329 327 323 318 314 311 308 306 303 301 295 285 273 257 237 216 228 203 186 200 252 245 256 267 271 271 270 268 263 254 242 236 230 230 219 194 179 170 192 180 172 140 104 142 244 233 212 176 205 226 226 230 231 235 251 250 248 243 255 249 201 251 236 227 245 245 251 258 261 261 260 263 264 264 264 265 266 266 266 265 264 263
328 333 335 340 342 339 339 337 332 329 325 319 316 315 312 310 303 289 266 242 234 238 251 230 217 234 249 256 265 266 265 266 265 260 254 245 233 221 213 205 185 182 178 158 187 189 171 149 144 199 221 226 215 200 216 233 240 253 256 254 253 257 264 253 262 264 207 234 237 225 246 248 248 253 254 259 261 262 265 265 263 261 261 262 262 263 262 261
323 326 330 337 341 342 343 342 340 337 334 330 328 330 334 332 310 299 293 272 262 259 258 254 244 245 252 255 256 259 261 260 257 250 244 234 220 208 202 187 160 188 199 168 160 163 166 173 206 217 223 223 218 210 223 240 252 257 249 260 263 255 265 257 261 272 220 208 249 232 249 255 247 251 255 258 259 256 258 259 261 260 258 259 259 260 261 262
319 320 326 331 337 340 341 344 343 340 340 338 334 336 338 329 305 294 300 287 277 271 264 263 254 248 253 254 251 252 254 254 248 238 229 218 208 202 189 175 178 192 167 165 165 161 179 207 224 225 226 231 241 217 216 235 236 243 242 261 267 252 273 268 250 266 242 185 259 249 252 257 249 251 254 256 254 252 255 255 259 261 258 257 257 258 260 262
311 314 319 322 332 336 336 343 344 342 344 341 337 338 334 328 318 308 306 282 282 280 268 261 255 250 252 254 250 244 241 243 242 234 228 214 200 200 189 171 181 164 145 186 204 205 206 227 231 229 220 222 250 234 212 251 241 224 224 245 262 247 263 268 242 266 262 199 266 272 265 263 254 258 253 251 253 254 258 257 259 261 258 256 258 259 259 261
310 310 312 314 324 329 331 338 342 343 343 341 340 337 334 329 325 326 314 272 279 282 270 261 254 250 250 252 248 236 233 235 237 236 228 213 195 194 201 179 155 159 192 206 212 223 232 234 227 217 200 206 236 239 220 255 254 222 210 222 250 245 243 254 271 305 300 275 283 289 285 275 228 240 248 247 251 254 258 258 258 260 258 257 260 261 258 258
308 309 310 311 316 322 325 330 338 341 338 338 336 333 335 333 328 338 333 296 279 275 273 259 244 247 247 247 243 231 230 235 235 236 228 216 205 197 198 181 174 207 215 213 221 238 247 243 212 179 195 206 217 234 214 221 251 249 210 215 236 244 247 258 281 319 315 292 301 323 293 288 194 210 237 242 247 248 251 252 252 256 257 254 256 260 260 259
300 304 308 309 312 318 319 322 328 334 336 334 334 333 333 335 336 337 344 358 289 257 248 219 216 237 238 235 226 208 222 250 237 231 228 224 217 212 199 173 194 227 206 201 228 244 242 229 201 179 197 199 201 238 221 203 239 272 223 212 230 241 249 256 268 295 266 260 291 101 245 284 263 201 220 231 237 243 247 251 250 252 254 250 249 256 261 262
284 292 300 303 307 310 311 314 317 326 334 329 330 333 329 334 1 350 348 346 284 206 166 184 186 189 214 213 191 172 169 256 221 216 212 214 214 211 215 193 199 229 168 140 264 240 203 204 200 196 195 181 191 236 224 186 211 266 220 188 209 225 233 229 223 232 238 277 298 163 146 274 282 236 197 210 219 238 248 251 252 250 251 251 251 255 260 263
271 276 283 290 296 297 298 304 311 322 324 318 324 327 328 333 350 17 29 292 275 143 141 191 181 194 224 185 181 180 178 154 155 202 199 200 201 200 225 221 192 212 165 152 238 239 171 187 202 191 179 188 207 223 193 161 197 253 161 149 168 190 200 165 169 216 273 349 293 223 142 257 280 257 182 201 205 224 240 240 248 252 251 253 255 258 262 265
268 267 269 275 283 284 285 291 303 318 310 308 317 316 325 319 305 32 94 256 281 119 149 187 183 209 189 164 193 212 234 65 74 189 182 193 199 188 234 232 197 227 224 199 232 249 183 187 193 172 171 214 217 215 162 162 204 226 112 94 78 82 82 96 124 139 18 307 252 204 164 229 281 276 143 159 201 219 235 236 246 259 259 258 258 262 267 270
269 269 268 265 270 274 279 284 291 307 303 297 300 298 291 226 329 30 241 253 304 166 156 169 191 195 141 140 219 242 234 328 35 143 157 181 200 197 107 223 184 212 269 277 256 256 246 106 144 178 195 207 180 133 144 167 182 122 96 57 33 21 27 55 42 68 8 279 234 188 184 190 272 286 138 175 215 211 223 235 250 262 262 261 261 266 270 272
271 272 270 267 267 269 274 277 279 287 285 279 280 266 208 178 78 184 239 269 26 265 94 167 237 87 126 140 265 269 211 282 108 146 174 155 190 210 100 138 152 86 321 300 277 274 255 174 199 212 192 149 102 94 38 60 106 106 94 75 33 333 5 25 354 58 214 265 226 188 186 184 235 259 180 234 257 215 206 221 236 245 253 256 261 268 270 269
269 270 270 270 269 268 268 271 275 276 278 279 266 224 179 221 208 218 243 11 359 239 141 196 225 89 135 112 272 235 173 250 196 160 183 165 168 200 202 206 176 99 295 257 267 301 267 220 210 202 183 160 130 110 358 3 72 111 113 123 121 300 338 350 306 117 217 257 234 186 177 206 242 245 220 260 272 240 213 211 222 231 247 254 259 265 268 269
270 268 269 269 269 271 270 273 274 271 278 280 248 147 82 248 236 227 230 336 253 218 104 105 112 130 134 98 261 226 166 226 201 174 189 146 168 236 258 239 172 187 259 226 286 317 293 270 186 136 255 190 162 166 221 272 173 161 155 154 169 212 230 258 263 268 259 264 257 171 166 247 276 262 216 233 249 248 237 228 230 234 244 253 258 262 267 271
270 269 269 267 268 271 272 274 270 265 272 264 194 104 87 232 247 345 151 229 261 351 54 87 89 113 135 193 248 202 186 245 180 156 181 130 163 250 256 238 201 196 221 199 284 206 255 286 193 161 218 181 178 202 199 151 158 187 159 144 177 186 180 207 229 249 261 277 296 183 174 224 273 278 220 223 253 267 257 248 248 251 253 256 262 263 264 268
268 269 267 265 263 261 263 265 260 259 251 214 139 109 204 227 246 337 213 236 286 332 310 356 77 40 290 267 261 215 211 242 138 133 179 169 189 217 206 211 198 176 155 203 252 166 223 271 227 182 164 161 183 213 184 118 125 219 117 121 217 200 178 220 247 236 228 296 289 223 216 235 233 257 249 239 264 271 267 272 276 269 259 256 259 261 261 261
266 266 264 264 259 255 257 256 252 252 231 180 127 221 224 226 216 189 210 214 221 323 331 333 12 242 277 272 283 263 214 226 158 138 200 200 207 213 208 216 195 186 186 195 224 196 230 273 247 181 291 167 190 223 171 154 196 185 135 182 217 159 159 223 271 291 107 258 263 220 239 276 304 279 260 224 251 260 276 278 266 259 258 257 257 259 261 260
264 263 265 261 256 256 253 246 244 239 216 174 177 232 216 228 207 191 230 61 119 85 61 320 264 211 253 261 281 290 279 259 219 162 212 223 230 206 202 235 202 192 205 210 226 238 238 271 254 181 222 273 355 17 23 355 112 127 179 210 160 76 130 176 243 320 251 250 261 254 257 271 294 280 300 28 323 286 281 277 272 275 274 272 269 267 268 268
267 269 269 262 257 255 246 237 232 223 203 171 227 236 209 216 199 191 238 269 333 41 89 234 252 220 246 262 279 293 310 299 162 164 246 245 243 183 162 242 214 199 220 224 242 278 241 264 273 176 181 302 16 28 332 349 62 136 204 225 108 148 232 163 170 219 235 244 253 263 269 267 242 250 276 310 290 280 284 309 320 301 286 282 283 282 281 279
274 275 274 269 260 247 238 229 216 208 192 172 233 233 208 214 210 198 211 221 221 222 219 221 225 247 243 238 258 287 288 277 265 273 246 232 256 197 128 249 225 230 240 214 214 291 313 258 274 2 22 308 26 123 200 271 332 131 265 332 75 177 193 183 182 182 226 244 249 256 267 265 242 227 214 231 239 241 279 332 327 297 298 300 300 300 297 293
268 265 268 262 231 221 219 209 202 194 185 216 225 227 224 227 240 222 211 209 200 204 224 211 201 228 241 236 246 248 247 255 252 243 218 218 263 278 273 167 129 306 282 173 194 286 8 265 263 316 339 282 227 198 190 189 196 190 220 246 248 225 188 241 238 172 220 247 250 247 251 258 260 198 169 203 213 194 299 331 314 298 305 304 300 298 296 295
235 238 260 230 194 199 193 188 192 191 199 231 225 236 242 240 250 236 224 224 224 225 232 218 201 222 244 252 249 227 214 233 229 224 223 225 239 257 249 161 147 254 1 94 178 296 20 256 264 279 274 258 256 231 195 202 199 186 198 210 214 221 234 265 252 219 210 244 247 250 251 255 271 251 168 192 251 282 312 306 283 275 282 285 286 285 287 293
208 226 256 212 198 201 188 180 197 206 204 220 228 234 230 234 246 242 228 220 218 229 236 229 224 228 239 249 248 234 222 217 214 216 222 221 217 218 209 178 163 151 108 143 209 173 153 160 272 258 248 259 279 285 228 230 242 241 230 216 214 216 213 234 245 230 221 240 245 261 261 247 272 282 278 277 280 287 287 269 249 256 263 268 276 280 284 288
213 232 240 225 220 204 189 185 226 211 220 241 237 234 222 223 235 235 224 208 203 217 224 223 229 231 233 236 236 234 227 218 215 216 227 229 220 221 220 208 187 147 110 220 231 177 152 131 234 253 264 265 278 290 280 239 236 270 265 227 219 224 220 229 244 238 233 235 233 256 258 236 246 275 279 282 278 269 256 252 252 259 265 269 274 280 283 283
238 250 244 248 236 206 192 200 222 211 235 241 241 245 236 233 238 240 234 193 185 199 217 227 227 227 229 225 228 229 218 222 226 221 226 230 216 222 224 224 223 213 195 212 203 186 192 191 203 233 263 258 262 284 276 248 199 224 238 229 230 232 233 245 267 249 238 233 228 243 254 244 239 261 276 284 281 272 264 263 262 261 267 273 277 282 283 280
273 267 247 237 225 213 214 229 233 225 224 231 243 247 242 246 239 242 246 228 210 206 216 241 239 234 232 225 239 240 222 230 245 233 225 229 241 231 226 230 234 229 226 221 193 168 203 214 196 217 244 248 249 251 242 230 230 228 220 229 232 226 226 238 246 237 238 231 229 240 252 253 255 265 275 276 275 276 276 274 269 262 268 278 281 281 280 276
286 271 251 234 223 222 228 235 241 245 225 230 240 233 238 250 247 244 246 241 232 228 232 251 256 266 248 226 244 249 236 237 243 238 235 237 257 261 228 231 231 228 232 226 198 167 181 218 213 228 234 238 251 252 234 186 210 229 228 227 229 227 227 234 239 238 243 245 241 242 250 257 260 261 263 265 271 277 279 279 279 276 277 281 282 279 278 276
269 256 230 227 230 230 234 238 242 244 236 237 237 231 238 242 250 246 230 227 233 228 231 247 236 235 238 234 245 250 243 242 239 241 253 251 262 293 269 247 237 235 239 230 201 185 200 225 220 232 236 237 247 252 250 241 234 234 234 233 233 230 227 231 238 241 248 258 254 243 246 254 252 248 254 262 267 269 273 280 286 286 284 283 282 281 278 276
230 263 250 244 251 239 235 248 274 301 336 297 254 281 258 245 248 239 225 267 274 226 221 240 230 238 269 279 277 268 257 251 247 249 260 287 323 326 305 283 256 246 247 231 201 194 213 240 229 235 242 241 243 248 251 252 250 242 237 241 242 238 237 238 241 241 241 249 255 252 247 249 247 244 249 255 258 262 270 278 280 282 284 284 284 283 280 279
236 268 271 273 281 272 284 333 348 331 322 313 261 251 265 258 259 247 232 328 327 248 232 252 311 12 358 356 360 325 310 285 267 300 11 355 334 328 312 303 297 289 284 251 220 209 216 237 233 239 248 247 243 245 245 246 252 251 244 242 242 243 245 245 245 246 246 250 258 259 255 254 251 247 246 250 257 264 268 271 273 277 280 283 284 284 285 289
248 259 288 299 288 286 294 300 309 309 296 283 255 240 248 255 269 326 24 255 290 311 305 356 9 6 354 351 338 305 334 79 159 304 342 340 327 327 328 311 320 337 332 308 284 259 236 231 233 243 252 248 244 246 242 239 241 244 243 241 241 245 248 250 252 254 253 255 257 255 256 258 255 253 254 256 260 264 265 267 271 273 275 278 284 290 301 316
254 262 287 298 281 281 289 273 267 286 272 248 234 271 280 249 275 351 328 261 244 228 86 58 360 346 334 318 309 297 331 4 254 265 266 272 281 282 286 284 292 314 314 287 274 280 268 262 257 260 261 246 240 242 242 239 238 240 243 243 243 244 245 247 248 245 246 252 254 254 256 254 249 250 251 253 256 257 259 263 266 270 277 289 307 327 348 358
256 262 266 270 269 265 266 297 300 250 252 255 287 326 291 286 350 10 314 260 177 137 75 34 352 333 320 306 303 314 322 304 289 284 277 265 258 257 254 252 253 260 273 281 278 251 248 266 263 262 264 253 245 244 244 243 240 237 234 232 237 242 243 245 247 246 245 246 249 251 250 252 258 261 263 266 264 261 263 269 277 294 321 350 8 10 5 359
Height
1565 1565 1564 1564 1564 1563 1563 1562 1562 1561 1561 1560 1560 1559 1559 1558 1558 1557 1557 1556 1555 1555 1554 1553 1553 1552 1552 1551 1550 1549 1549 1548 1547 1546 1545 1545 1546 1546 1546 1546 1547 1547 1547 1547 1547 1547 1546 1547 1547 1547 1547 1547 1547 1546 1547 1547 1547 1548 1550 1553 1552 1551 1547 1539 1536 1535 1533 1531 1529 1528 1527 1528 1527 1525 1525 1524 1524 1523 1522 1521 1521 1521 1519 1519 1518 1519 1519 1520
1565 1565 1564 1564 1563 1563 1563 1562 1562 1561 1561 1560 1560 1559 1559 1558 1558 1557 1556 1556 1555 1555 1554 1553 1553 1552 1551 1550 1550 1549 1548 1547 1546 1545 1544 1544 1544 1544 1545 1545 1545 1546 1546 1546 1546 1546 1546 1546 1546 1546 1546 1546 1546 1546 1546 1546 1547 1547 1550 1552 1548 1545 1539 1533 1533 1531 1531 1531 1528 1527 1527 1527 1526 1524 1524 1524 1522 1522 1521 1519 1520 1519 1517 1517 1517 1517 1518 1518
1564 1564 1564 1563 1563 1562 1562 1562 1561 1561 1560 1560 1559 1559 1558 1558 1557 1557 1556 1555 1555 1554 1554 1553 1552 1552 1551 1550 1549 1548 1547 1546 1544 1544 1543 1543 1543 1543 1543 1544 1544 1545 1545 1545 1545 1546 1546 1545 1545 1545 1546 1546 1546 1546 1546 1545 1546 1545 1548 1550 1543 1538 1535 1531 1531 1529 1530 1529 1527 1527 1526 1525 1524 1524 1523 1522 1520 1520 1518 1516 1517 1516 1514 1515 1515 1515 1515 1516
1563 1563 1563 1563 1562 1562 1561 1561 1561 1560 1560 1559 1559 1559 1558 1558 1557 1556 1556 1555 1554 1554 1553 1553 1552 1551 1551 1550 1549 1548 1546 1545 1543 1542 1543 1542 1542 1542 1542 1542 1543 1544 1544 1544 1545 1545 1545 1545 1545 1544 1545 1545 1545 1545 1545 1544 1544 1544 1544 1543 1537 1535 1534 1530 1528 1529 1528 1528 1527 1526 1526 1524 1523 1523 1521 1520 1520 1517 1513 1512 1513 1513 1511 1512 1513 1513 1513 1513
1562 1562 1562 1562 1561 1561 1561 1560 1560 1560 1559 1559 1558 1558 1557 1557 1556 1556 1555 1554 1554 1553 1552 1552 1551 1550 1550 1549 1548 1547 1547 1546 1542 1542 1543 1541 1541 1541 1541 1541 1541 1542 1543 1543 1543 1544 1544 1544 1544 1544 1544 1544 1544 1544 1543 1541 1542 1542 1539 1536 1533 1534 1533 1528 1527 1528 1527 1527 1526 1525 1525 1523 1521 1521 1518 1518 1517 1509 1507 1509 1510 1510 1510 1511 1511 1511 1511 1511
1561 1561 1561 1561 1560 1560 1560 1559 1559 1559 1558 1558 1558 1557 1556 1556 1555 1555 1554 1553 1553 1552 1552 1551 1550 1550 1549 1548 1548 1547 1548 1546 1542 1542 1542 1541 1541 1540 1540 1540 1540 1541 1541 1542 1542 1543 1543 1543 1543 1543 1543 1542 1542 1541 1540 1539 1540 1540 1535 1533 1532 1533 1531 1526 1527 1527 1527 1527 1525 1524 1523 1521 1521 1518 1516 1515 1508 1501 1504 1508 1508 1509 1509 1509 1509 1508 1508 1507
1560 1560 1559 1559 1559 1559 1558 1558 1558 1558 1557 1557 1556 1556 1555 1555 1554 1553 1553 1552 1551 1551 1551 1550 1549 1549 1548 1547 1547 1546 1546 1545 1542 1542 1541 1540 1540 1539 1539 1539 1539 1539 1539 1540 1540 1541 1541 1541 1541 1541 1541 1541 1540 1538 1538 1537 1538 1538 1534 1531 1530 1531 1529 1525 1526 1526 1526 1525 1523 1523 1522 1520 1519 1517 1514 1508 1499 1499 1504 1506 1506 1507 1507 1506 1506 1505 1504 1504
1558 1558 1558 1558 1558 1557 1557 1557 1556 1556 1556 1555 1555 1555 1554 1553 1553 1552 1552 1551 1550 1550 1549 1549 1548 1548 1547 1546 1545 1544 1543 1542 1541 1541 1540 1540 1539 1539 1539 1538 1538 1538 1538 1539 1539 1540 1540 1540 1540 1540 1539 1539 1538 1536 1536 1536 1537 1536 1532 1529 1529 1528 1526 1524 1525 1523 1524 1522 1522 1523 1519 1517 1517 1517 1512 1500 1493 1496 1501 1502 1503 1503 1503 1503 1502 1501 1502 1501
1557 1557 1557 1556 1556 1556 1555 1555 1554 1554 1554 1554 1554 1553 1553 1552 1551 1551 1550 1550 1549 1548 1548 1548 1547 1546 1546 1545 1545 1543 1540 1540 1540 1540 1539 1539 1538 1538 1538 1537 1537 1537 1537 1537 1537 1538 1538 1538 1538 1538 1538 1537 1536 1535 1535 1536 1535 1532 1530 1528 1527 1526 1524 1523 1522 1521 1521 1520 1520 1521 1517 1514 1515 1517 1507 1491 1489 1494 1496 1498 1498 1500 1500 1498 1498 1498 1498 1498
1555 1555 1555 1555 1554 1554 1553 1553 1553 1552 1552 1552 1551 1551 1551 1550 1549 1549 1548 1548 1547 1547 1546 1546 1545 1545 1545 1544 1544 1541 1537 1538 1539 1538 1538 1537 1537 1536 1536 1536 1535 1535 1535 1535 1535 1536 1535 1536 1537 1537 1537 1536 1535 1534 1534 1535 1532 1529 1529 1528 1526 1525 1523 1521 1519 1517 1519 1518 1517 1519 1515 1511 1513 1517 1504 1485 1488 1493 1493 1494 1494 1496 1495 1494 1494 1494 1494 1494
1553 1553 1553 1552 1552 1552 1551 1551 1550 1550 1550 1549 1549 1549 1548 1548 1547 1547 1546 1546 1545 1545 1544 1544 1544 1544 1543 1542 1541 1537 1535 1537 1537 1536 1537 1536 1535 1534 1534 1534 1533 1533 1533 1533 1533 1534 1534 1535 1536 1537 1536 1535 1534 1533 1532 1531 1530 1529 1528 1527 1524 1524 1521 1517 1517 1515 1517 1516 1513 1515 1514 1510 1512 1514 1499 1483 1487 1492 1491 1491 1491 1492 1490 1490 1490 1490 1491 1490
1551 1550 1550 1550 1550 1549 1549 1548 1548 1548 1547 1547 1547 1546 1546 1545 1545 1544 1544 1543 1543 1542 1542 1542 1542 1541 1541 1539 1535 1533 1534 1535 1535 1535 1534 1534 1533 1532 1532 1531 1531 1531 1531 1531 1532 1532 1533 1534 1535 1535 1535 1534 1533 1532 1531 1529 1530 1529 1528 1528 1523 1523 1520 1511 1512 1513 1514 1513 1509 1513 1516 1510 1507 1502 1490 1484 1487 1490 1490 1488 1488 1488 1486 1486 1486 1486 1486 1485
1549 1548 1548 1548 1547 1547 1546 1546 1545 1545 1544 1544 1544 1544 1543 1543 1542 1542 1541 1541 1540 1540 1539 1540 1539 1539 1540 1535 1529 1531 1533 1532 1532 1532 1532 1531 1530 1529 1529 1529 1529 1530 1529 1529 1530 1530 1532 1532 1533 1534 1533 1534 1533 1532 1530 1528 1530 1528 1528 1529 1525 1527 1520 1505 1508 1511 1510 1511 1508 1513 1517 1507 1497 1491 1484 1485 1488 1489 1489 1485 1483 1484 1482 1482 1482 1482 1481 1481
1547 1546 1546 1546 1545 1544 1544 1543 1543 1542 1542 1541 1541 1541 1541 1540 1539 1538 1538 1538 1538 1537 1537 1537 1537 1537 1536 1531 1527 1529 1530 1529 1529 1528 1529 1528 1527 1527 1526 1526 1527 1527 1527 1528 1528 1529 1530 1531 1532 1533 1533 1533 1531 1530 1530 1529 1530 1528 1530 1530 1529 1532 1519 1502 1507 1510 1508 1509 1506 1511 1516 1505 1491 1484 1482 1484 1486 1487 1486 1482 1480 1479 1478 1478 1478 1478 1477 1476
1545 1545 1544 1544 1543 1542 1541 1541 1540 1539 1539 1538 1538 1538 1538 1537 1536 1535 1536 1535 1535 1534 1534 1534 1534 1534 1533 1528 1525 1526 1526 1525 1525 1525 1526 1525 1524 1524 1523 1524 1525 1525 1526 1526 1526 1527 1528 1530 1531 1531 1531 1531 1530 1530 1531 1531 1530 1530 1532 1530 1530 1532 1520 1505 1505 1507 1505 1506 1505 1509 1511 1504 1490 1481 1480 1482 1484 1484 1482 1479 1477 1476 1476 1475 1474 1474 1473 1472
1544 1543 1543 1542 1541 1540 1540 1539 1538 1537 1536 1535 1535 1535 1534 1534 1533 1532 1532 1532 1532 1531 1531 1531 1531 1532 1531 1525 1523 1523 1522 1521 1521 1522 1522 1521 1521 1521 1522 1523 1523 1523 1524 1524 1525 1526 1527 1529 1530 1530 1530 1529 1529 1531 1533 1535 1533 1530 1532 1530 1527 1527 1524 1514 1503 1499 1501 1502 1504 1505 1503 1497 1487 1479 1478 1480 1480 1480 1479 1475 1473 1473 1473 1473 1471 1470 1469 1469
1542 1542 1541 1541 1540 1539 1538 1537 1536 1535 1534 1533 1532 1531 1531 1530 1529 1529 1528 1528 1529 1528 1528 1529 1528 1530 1528 1522 1521 1519 1518 1518 1518 1518 1518 1519 1519 1519 1520 1520 1520 1521 1522 1523 1524 1525 1526 1528 1529 1529 1529 1528 1528 1530 1537 1541 1535 1529 1530 1530 1526 1524 1524 1518 1504 1497 1499 1500 1501 1500 1498 1492 1482 1476 1477 1478 1478 1477 1476 1473 1470 1470 1470 1469 1468 1467 1466 1465
1540 1540 1539 1539 1538 1537 1537 1535 1534 1533 1532 1531 1529 1528 1528 1527 1526 1525 1525 1525 1525 1526 1527 1526 1528 1530 1524 1518 1517 1515 1515 1516 1515 1515 1515 1515 1516 1517 1518 1518 1519 1520 1521 1523 1523 1524 1526 1527 1528 1529 1529 1527 1526 1530 1535 1535 1526 1522 1524 1525 1525 1522 1520 1519 1508 1498 1498 1499 1498 1499 1498 1490 1482 1478 1476 1475 1476 1475 1472 1470 1468 1468 1467 1465 1465 1464 1463 1461
1539 1538 1538 1538 1537 1536 1535 1534 1533 1531 1530 1529 1528 1526 1525 1524 1523 1522 1521 1521 1522 1523 1523 1521 1522 1524 1518 1513 1514 1514 1513 1513 1513 1513 1513 1512 1514 1515 1516 1516 1517 1519 1520 1522 1522 1522 1524 1526 1529 1531 1528 1522 1521 1525 1524 1518 1514 1516 1518 1519 1520 1518 1515 1513 1505 1497 1498 1499 1498 1498 1492 1486 1483 1478 1473 1472 1474 1472 1468 1467 1467 1465 1463 1462 1461 1460 1458 1457
1538 1538 1537 1537 1536 1535 1534 1533 1532 1530 1529 1527 1526 1524 1523 1523 1521 1520 1519 1519 1518 1517 1516 1515 1515 1514 1512 1512 1513 1512 1511 1510 1510 1509 1509 1510 1511 1513 1514 1515 1516 1518 1518 1519 1520 1521 1521 1525 1528 1525 1517 1512 1515 1517 1514 1511 1513 1516 1518 1518 1517 1516 1512 1506 1500 1495 1498 1498 1492 1491 1485 1479 1479 1475 1470 1469 1470 1469 1465 1464 1463 1460 1459 1458 1457 1455 1453 1452
1537 1537 1536 1536 1536 1535 1534 1533 1531 1530 1528 1526 1525 1524 1523 1524 1523 1521 1519 1516 1514 1513 1512 1512 1512 1510 1509 1510 1510 1509 1508 1507 1506 1506 1507 1508 1509 1510 1511 1512 1515 1516 1516 1516 1519 1519 1520 1524 1523 1512 1505 1507 1511 1513 1512 1514 1515 1516 1518 1518 1516 1516 1508 1499 1498 1493 1495 1497 1488 1486 1483 1476 1475 1472 1468 1468 1468 1465 1460 1459 1457 1454 1455 1453 1452 1450 1447 1446
1536 1535 1535 1535 1534 1534 1533 1532 1531 1530 1528 1526 1525 1524 1524 1524 1523 1522 1520 1516 1510 1510 1510 1508 1508 1506 1504 1506 1505 1506 1506 1503 1502 1502 1504 1506 1506 1506 1507 1509 1512 1512 1513 1516 1517 1519 1521 1522 1513 1503 1503 1509 1510 1511 1513 1515 1516 1517 1519 1520 1517 1515 1505 1495 1495 1491 1492 1495 1486 1484 1481 1472 1470 1469 1466 1466 1462 1458 1455 1454 1451 1448 1450 1450 1446 1444 1442 1441
1535 1534 1534 1533 1533 1533 1532 1531 1530 1529 1528 1526 1525 1524 1523 1523 1522 1521 1520 1517 1509 1504 1504 1502 1501 1500 1500 1500 1499 1502 1501 1497 1498 1498 1501 1503 1501 1503 1504 1505 1508 1509 1512 1512 1511 1514 1518 1513 1504 1501 1506 1510 1509 1510 1513 1513 1514 1515 1516 1518 1514 1510 1506 1496 1491 1489 1491 1493 1486 1484 1479 1468 1467 1467 1463 1462 1455 1451 1452 1450 1447 1444 1444 1444 1440 1439 1438 1436
1534 1533 1533 1532 1532 1532 1531 1531 1530 1528 1527 1526 1525 1524 1523 1522 1521 1519 1518 1516 1508 1501 1497 1496 1496 1495 1493 1493 1493 1495 1494 1493 1495 1494 1496 1498 1499 1502 1501 1501 1506 1508 1507 1504 1502 1503 1503 1500 1499 1502 1506 1507 1508 1509 1512 1513 1510 1507 1510 1513 1506 1501 1502 1497 1492 1490 1491 1490 1486 1487 1478 1459 1458 1462 1457 1454 1450 1448 1449 1446 1444 1439 1436 1438 1435 1432 1433 1430
1533 1532 1531 1531 1531 1530 1530 1530 1528 1529 1527 1525 1525 1523 1523 1521 1520 1519 1517 1515 1509 1498 1492 1491 1491 1488 1487 1488 1490 1491 1492 1491 1491 1491 1492 1494 1495 1498 1498 1500 1502 1501 1500 1500 1501 1500 1497 1496 1497 1500 1503 1505 1507 1507 1509 1510 1503 1499 1503 1502 1495 1494 1497 1496 1495 1496 1496 1493 1488 1491 1483 1452 1441 1452 1452 1448 1447 1445 1444 1443 1439 1433 1430 1433 1431 1425 1424 1424
1531 1531 1530 1530 1529 1529 1530 1528 1528 1528 1526 1526 1525 1523 1523 1521 1519 1519 1517 1517 1509 1495 1489 1488 1487 1485 1484 1486 1487 1490 1493 1489 1485 1488 1490 1491 1492 1494 1496 1497 1496 1494 1495 1498 1500 1498 1494 1492 1493 1496 1498 1501 1507 1507 1503 1503 1501 1497 1495 1491 1489 1493 1496 1496 1498 1500 1498 1494 1490 1492 1492 1466 1439 1443 1448 1444 1444 1443 1440 1439 1433 1428 1425 1426 1426 1421 1419 1418
1530 1529 1529 1529 1528 1528 1528 1528 1528 1527 1526 1526 1524 1523 1523 1520 1521 1519 1517 1519 1506 1486 1484 1486 1484 1484 1483 1484 1485 1488 1492 1485 1482 1485 1486 1488 1490 1492 1493 1493 1492 1491 1490 1496 1498 1492 1487 1488 1490 1492 1495 1499 1506 1502 1492 1496 1501 1493 1486 1485 1487 1490 1493 1495 1497 1500 1497 1494 1494 1490 1493 1486 1452 1434 1438 1437 1439 1441 1437 1434 1426 1421 1420 1420 1420 1418 1415 1413
1528 1527 1527 1527 1526 1526 1527 1527 1526 1526 1526 1526 1524 1525 1522 1521 1523 1519 1520 1523 1499 1477 1480 1482 1481 1482 1481 1484 1484 1484 1486 1482 1482 1484 1484 1487 1489 1490 1490 1488 1489 1489 1488 1493 1492 1484 1481 1485 1487 1488 1495 1498 1494 1486 1482 1491 1495 1487 1485 1487 1488 1489 1491 1494 1494 1498 1500 1498 1498 1491 1492 1493 1455 1425 1432 1434 1436 1440 1433 1426 1420 1416 1418 1417 1416 1414 1411 1410
1525 1525 1525 1525 1524 1524 1524 1525 1525 1525 1525 1524 1525 1524 1521 1523 1522 1518 1528 1524 1490 1473 1480 1479 1479 1482 1480 1483 1484 1482 1484 1483 1483 1484 1484 1487 1487 1489 1489 1486 1489 1489 1487 1488 1484 1480 1480 1481 1482 1484 1489 1487 1480 1479 1482 1487 1487 1485 1488 1489 1490 1492 1492 1496 1494 1495 1501 1496 1492 1490 1490 1489 1451 1419 1432 1439 1436 1436 1426 1421 1418 1415 1417 1414 1412 1410 1408 1408
1523 1522 1523 1522 1521 1522 1522 1522 1524 1524 1523 1524 1524 1523 1522 1523 1520 1524 1531 1514 1483 1476 1480 1477 1479 1481 1479 1482 1484 1482 1484 1484 1484 1485 1485 1487 1487 1488 1488 1487 1489 1489 1488 1488 1483 1480 1480 1480 1482 1480 1479 1475 1475 1482 1484 1484 1485 1485 1489 1488 1491 1494 1493 1497 1496 1496 1501 1489 1480 1481 1480 1485 1460 1426 1430 1435 1428 1425 1421 1420 1418 1415 1415 1411 1409 1408 1405 1405
1520 1520 1520 1520 1519 1520 1520 1520 1521 1522 1522 1522 1522 1523 1522 1521 1522 1529 1520 1495 1481 1481 1479 1478 1480 1480 1480 1483 1483 1483 1484 1484 1484 1485 1485 1487 1488 1488 1489 1488 1489 1491 1491 1489 1483 1480 1480 1481 1479 1473 1472 1473 1476 1482 1484 1486 1486 1485 1488 1488 1491 1495 1494 1498 1500 1502 1503 1483 1469 1471 1473 1480 1461 1427 1424 1425 1418 1419 1418 1418 1415 1412 1412 1408 1407 1406 1403 1401
1517 1517 1517 1517 1517 1517 1518 1518 1519 1520 1521 1521 1523 1522 1522 1524 1523 1516 1500 1485 1484 1482 1477 1480 1482 1481 1482 1484 1484 1483 1483 1483 1483 1483 1484 1487 1488 1488 1488 1486 1487 1491 1489 1486 1482 1478 1476 1474 1472 1470 1470 1472 1474 1479 1485 1487 1486 1487 1489 1490 1496 1501 1500 1501 1499 1500 1499 1479 1465 1471 1476 1472 1444 1418 1422 1421 1415 1416 1414 1413 1412 1410 1409 1406 1405 1404 1400 1399
1513 1513 1514 1514 1514 1515 1515 1516 1517 1519 1519 1520 1522 1522 1526 1529 1514 1496 1490 1488 1484 1479 1477 1481 1481 1482 1484 1483 1482 1481 1482 1482 1481 1482 1483 1486 1489 1487 1486 1486 1486 1486 1484 1485 1484 1478 1471 1467 1469 1472 1470 1468 1469 1475 1481 1480 1481 1485 1483 1486 1495 1502 1505 1504 1498 1495 1488 1471 1464 1475 1478 1460 1431 1414 1417 1413 1407 1409 1409 1410 1409 1406 1406 1404 1403 1403 1400 1397
1509 1510 1511 1511 1512 1512 1513 1514 1515 1515 1517 1518 1520 1524 1530 1526 1503 1488 1490 1488 1481 1478 1479 1481 1481 1483 1483 1482 1481 1479 1480 1479 1478 1481 1483 1485 1489 1486 1483 1484 1485 1485 1484 1486 1485 1481 1477 1466 1461 1465 1462 1461 1463 1463 1464 1466 1474 1477 1474 1477 1483 1485 1489 1490 1483 1477 1469 1460 1465 1477 1470 1446 1426 1414 1409 1406 1405 1406 1407 1408 1407 1406 1405 1404 1402 1401 1399 1396
1506 1507 1507 1507 1508 1509 1510 1512 1512 1513 1516 1516 1519 1525 1523 1510 1495 1492 1490 1485 1482 1480 1479 1479 1481 1483 1483 1482 1480 1477 1475 1475 1476 1480 1482 1483 1484 1480 1478 1478 1480 1483 1484 1486 1482 1480 1480 1464 1452 1455 1454 1455 1456 1453 1455 1462 1470 1475 1473 1476 1475 1470 1470 1470 1465 1461 1463 1464 1464 1466 1454 1431 1418 1410 1405 1408 1407 1405 1406 1406 1406 1406 1403 1402 1400 1397 1396 1393
1503 1503 1503 1503 1503 1506 1508 1509 1509 1511 1513 1514 1520 1521 1508 1494 1490 1491 1486 1482 1483 1482 1480 1481 1480 1482 1483 1480 1479 1477 1474 1475 1478 1479 1480 1482 1480 1476 1476 1473 1473 1475 1475 1477 1474 1472 1472 1460 1452 1456 1455 1455 1456 1453 1455 1458 1462 1470 1474 1470 1465 1463 1462 1465 1465 1462 1468 1469 1452 1442 1438 1425 1416 1407 1401 1406 1406 1405 1407 1405 1404 1402 1399 1399 1398 1394 1394 1392
1500 1499 1499 1498 1500 1503 1504 1505 1507 1509 1509 1512 1514 1506 1494 1488 1487 1486 1483 1481 1483 1482 1484 1486 1483 1480 1481 1480 1478 1477 1476 1476 1478 1478 1478 1479 1474 1470 1471 1468 1467 1468 1464 1465 1465 1462 1463 1457 1451 1455 1456 1456 1459 1457 1457 1457 1458 1464 1468 1461 1458 1464 1464 1466 1472 1468 1469 1467 1445 1430 1428 1426 1425 1414 1400 1402 1405 1403 1403 1402 1403 1402 1399 1400 1398 1395 1394 1392
1496 1496 1494 1492 1496 1499 1500 1502 1504 1505 1507 1509 1506 1495 1487 1485 1484 1482 1482 1482 1482 1483 1486 1489 1485 1480 1481 1482 1479 1477 1478 1479 1479 1478 1478 1477 1469 1463 1465 1463 1462 1464 1461 1462 1464 1460 1461 1459 1453 1453 1457 1458 1459 1459 1459 1460 1459 1460 1460 1457 1459 1465 1464 1465 1471 1469 1465 1462 1446 1430 1423 1420 1420 1411 1401 1402 1402 1399 1399 1401 1403 1403 1401 1402 1399 1397 1396 1394
1494 1494 1490 1488 1492 1494 1495 1499 1500 1502 1504 1503 1499 1491 1484 1482 1480 1480 1481 1481 1482 1484 1485 1486 1484 1481 1481 1482 1481 1479 1480 1480 1480 1480 1479 1478 1469 1461 1462 1462 1461 1462 1461 1463 1466 1461 1462 1464 1459 1455 1459 1460 1459 1460 1460 1459 1460 1460 1459 1460 1460 1460 1459 1459 1460 1457 1454 1452 1443 1435 1427 1413 1404 1400 1400 1400 1398 1399 1401 1401 1402 1402 1401 1401 1399 1398 1397 1395
1492 1492 1487 1486 1489 1490 1491 1495 1496 1498 1497 1493 1490 1485 1481 1480 1479 1478 1479 1480 1480 1481 1482 1481 1481 1481 1479 1478 1480 1480 1480 1480 1480 1480 1478 1475 1469 1463 1460 1461 1462 1462 1461 1462 1463 1462 1463 1466 1463 1459 1461 1461 1457 1455 1454 1452 1455 1459 1460 1460 1460 1458 1457 1458 1455 1449 1446 1445 1440 1438 1430 1409 1394 1393 1395 1395 1396 1400 1401 1400 1401 1401 1399 1398 1397 1397 1396 1396
1490 1490 1485 1484 1488 1488 1489 1492 1492 1491 1489 1485 1482 1480 1479 1480 1478 1476 1477 1478 1478 1477 1478 1478 1478 1478 1477 1476 1476 1476 1477 1477 1476 1477 1475 1471 1470 1466 1460 1459 1461 1461 1461 1461 1462 1464 1466 1467 1466 1463 1460 1456 1450 1448 1450 1447 1445 1449 1451 1450 1450 1451 1453 1456 1452 1443 1441 1439 1433 1432 1427 1409 1394 1390 1391 1394 1396 1397 1398 1399 1399 1399 1397 1396 1395 1394 1394 1394
1488 1487 1482 1483 1485 1485 1486 1487 1485 1484 1483 1480 1477 1477 1478 1477 1475 1475 1475 1476 1477 1476 1476 1476 1475 1475 1474 1473 1472 1472 1473 1472 1470 1471 1470 1465 1465 1463 1458 1456 1458 1458 1459 1461 1461 1461 1464 1468 1470 1467 1461 1454 1448 1447 1450 1449 1445 1445 1445 1443 1442 1443 1445 1448 1442 1435 1434 1433 1427 1427 1425 1412 1398 1391 1389 1392 1393 1393 1395 1396 1395 1395 1394 1393 1392 1392 1392 1392
1484 1482 1481 1482 1483 1482 1483 1483 1481 1480 1478 1474 1473 1474 1475 1474 1473 1472 1473 1474 1475 1476 1475 1473 1472 1471 1470 1469 1469 1468 1468 1466 1463 1462 1463 1460 1457 1455 1454 1454 1455 1455 1458 1461 1459 1457 1461 1466 1469 1466 1460 1455 1450 1446 1446 1447 1449 1448 1444 1441 1439 1436 1433 1433 1430 1428 1429 1427 1428 1430 1425 1412 1403 1395 1388 1387 1389 1390 1391 1390 1391 1391 1389 1389 1389 1389 1390 1389
1482 1480 1480 1481 1482 1481 1480 1477 1476 1476 1475 1473 1473 1472 1472 1472 1470 1469 1470 1471 1472 1472 1471 1469 1468 1468 1466 1465 1465 1464 1465 1463 1457 1454 1456 1456 1452 1449 1449 1450 1451 1452 1455 1456 1453 1452 1455 1458 1460 1462 1459 1455 1452 1450 1447 1445 1446 1445 1440 1437 1435 1432 1431 1431 1430 1431 1428 1422 1424 1426 1419 1408 1402 1397 1392 1388 1386 1385 1384 1384 1387 1388 1386 1386 1386 1386 1385 1384
1481 1479 1478 1478 1480 1479 1475 1471 1471 1472 1472 1473 1472 1471 1471 1469 1466 1465 1466 1468 1468 1468 1468 1466 1465 1464 1463 1463 1463 1461 1461 1461 1457 1452 1451 1452 1449 1445 1446 1447 1448 1449 1449 1449 1447 1448 1450 1449 1450 1454 1454 1450 1447 1443 1440 1438 1438 1437 1436 1433 1431 1431 1432 1430 1430 1431 1426 1418 1416 1415 1410 1403 1398 1398 1397 1391 1384 1380 1378 1378 1382 1385 1384 1382 1382 1381 1379 1378
1481 1479 1476 1476 1476 1475 1471 1470 1470 1470 1470 1471 1470 1469 1468 1466 1463 1462 1464 1465 1465 1465 1465 1463 1463 1464 1462 1462 1462 1460 1457 1457 1456 1453 1451 1450 1448 1445 1443 1444 1444 1443 1443 1444 1444 1446 1449 1445 1442 1441 1439 1437 1433 1427 1426 1429 1430 1430 1430 1427 1426 1427 1428 1427 1427 1423 1418 1414 1409 1405 1404 1402 1400 1401 1397 1388 1383 1380 1375 1372 1375 1380 1380 1378 1376 1375 1375 1374
1480 1478 1476 1475 1473 1471 1469 1468 1469 1469 1469 1469 1468 1465 1463 1462 1462 1461 1462 1461 1460 1461 1462 1462 1462 1462 1460 1459 1459 1456 1453 1453 1453 1452 1451 1449 1447 1445 1444 1444 1443 1441 1441 1443 1443 1445 1447 1443 1437 1435 1431 1428 1426 1422 1422 1424 1426 1427 1427 1425 1425 1425 1425 1426 1424 1416 1413 1413 1406 1400 1402 1403 1399 1399 1394 1387 1383 1379 1373 1371 1371 1372 1371 1371 1371 1371 1371 1370
1479 1476 1473 1474 1473 1469 1468 1468 1469 1468 1468 1468 1467 1463 1461 1460 1461 1461 1460 1459 1458 1459 1460 1460 1460 1461 1461 1461 1461 1458 1454 1451 1450 1450 1452 1455 1456 1454 1449 1444 1443 1442 1442 1443 1442 1443 1442 1437 1433 1431 1428 1426 1426 1424 1423 1423 1422 1423 1425 1424 1423 1422 1421 1421 1417 1413 1413 1409 1399 1395 1399 1396 1392 1393 1391 1384 1378 1374 1374 1373 1370 1366 1364 1362 1363 1365 1366 1365
1476 1475 1472 1473 1472 1469 1468 1469 1469 1468 1467 1467 1467 1464 1462 1461 1461 1460 1460 1459 1459 1459 1458 1459 1462 1465 1466 1466 1466 1465 1461 1458 1458 1458 1460 1464 1465 1461 1456 1449 1445 1444 1444 1444 1443 1441 1438 1432 1428 1427 1425 1423 1423 1422 1422 1422 1421 1420 1420 1420 1419 1417 1414 1411 1407 1405 1405 1399 1391 1392 1391 1384 1382 1384 1381 1374 1371 1372 1373 1372 1367 1364 1360 1357 1357 1359 1361 1362
1475 1474 1473 1472 1471 1469 1469 1469 1469 1468 1467 1466 1465 1463 1461 1461 1461 1460 1461 1462 1462 1460 1458 1461 1465 1466 1466 1466 1466 1466 1465 1466 1469 1467 1467 1468 1466 1463 1462 1457 1451 1449 1449 1449 1446 1442 1437 1429 1422 1422 1422 1419 1418 1417 1417 1418 1417 1415 1412 1411 1413 1412 1408 1405 1402 1401 1400 1393 1386 1387 1384 1378 1376 1374 1370 1368 1369 1370 1370 1368 1364 1360 1357 1356 1356 1358 1361 1363
1474 1474 1474 1474 1471 1468 1468 1468 1467 1468 1467 1464 1464 1462 1460 1460 1461 1462 1462 1461 1461 1461 1461 1464 1466 1465 1464 1465 1464 1464 1463 1465 1468 1467 1467 1468 1466 1464 1463 1460 1457 1455 1453 1450 1447 1444 1441 1433 1426 1425 1422 1415 1413 1412 1409 1409 1411 1410 1410 1409 1407 1404 1400 1397 1394 1392 1390 1385 1381 1382 1380 1372 1367 1364 1363 1363 1365 1365 1365 1364 1361 1358 1357 1360 1362 1363 1365 1365
1473 1473 1473 1474 1471 1468 1468 1468 1467 1468 1465 1461 1462 1462 1461 1461 1461 1463 1463 1460 1458 1461 1462 1463 1465 1464 1464 1464 1462 1462 1462 1462 1462 1462 1462 1462 1461 1459 1459 1457 1457 1457 1454 1450 1447 1445 1442 1436 1431 1429 1420 1411 1409 1407 1405 1407 1406 1402 1400 1398 1394 1390 1388 1386 1383 1381 1379 1377 1375 1372 1366 1359 1358 1361 1362 1363 1363 1364 1365 1364 1363 1363 1364 1366 1368 1369 1368 1366